Regional Weather Roundup
Issued by NWS Huntsville, AL

Home | Current Version | Previous Version | Text Only | Print | Product List | Glossary On
Versions: 1 2 3 4 5 6 7 8 9 10 11 12 13 14 15 16 17 18 19 20 21 22 23 24 25 26 27 28 29 30 31 32 33 34 35 36 37 38 39 40 41 42 43 44 45 46 47 48 49 50
000
ASUS44 KHUN 201624
RWRHUN

WEATHER ROUNDUP FOR THE TENNESSEE VALLEY
NATIONAL WEATHER SERVICE HUNTSVILLE AL
1100 AM CDT WED AUG 20 2014

ALZ001>004-201700-
NORTHWEST ALABAMA

CITY           SKY/WX    TMP DP  RH WIND       PRES   REMARKS
COURTLAND HCN    N/A     86 N/A N/A W6          N/A
SHOALS AIRPORT SUNNY     88  75  65 W12       30.06S HX  97
SHOALS TVA RES   N/A     86 N/A N/A MISG        N/A
$$

ALZ005>007-016-201700-
NORTH CENTRAL ALABAMA

CITY           SKY/WX    TMP DP  RH WIND       PRES   REMARKS
CULLMAN AG STN   N/A     84 N/A N/A CALM        N/A
DECATUR AP     SUNNY     88  76  67 W8        30.06R HX  99
HUNTSVILLE AP  MOSUNNY   88  74  63 W7        30.05S HX  96
HUN NWS/UAH      N/A     88  72  59 SW6         N/A  HX  95
MERIDIANVILLE  MOSUNNY   88  70  55 W7        30.06S HX  92
REDSTONE ARSN  MOSUNNY   88  75  66 W5        30.06S HX  97
VINEMONT AP    FAIR      86  75  69 SW6       30.10F HX  95
$$

ALZ008>010-201700-
NORTHEAST ALABAMA

CITY           SKY/WX    TMP DP  RH WIND       PRES   REMARKS
ALBERTVILLE    SUNNY     86  77  74 W7        30.08S HX  97
CROSSVILLE       N/A     86 N/A N/A CALM        N/A
FORT PAYNE     PTSUNNY   86  72  62 W5        30.06S HX  92
SCOTTSBORO AP  MOSUNNY   86  77  74 W6        30.05S HX  97
SCOTTSBORO HCN   N/A     84 N/A N/A MISG        N/A
VALLEY HEAD      N/A     82 N/A N/A MISG        N/A
$$

TNZ076-096-097-201700-
SOUTHEASTERN MIDDLE TENNESSEE

CITY           SKY/WX    TMP DP  RH WIND       PRES   REMARKS
FAYETTEVILLE   MOSUNNY   86  75  70 W8        30.06S HX  95
TULLAHOMA      PTSUNNY   84  73  70 SW5       30.07S HX  91
WINCHESTER     MOSUNNY   86  75  70 SW5       30.06S HX  95
$$

...SURROUNDING SITES...

CITY           SKY/WX    TMP DP  RH WIND       PRES   REMARKS
ATLANTA        MOSUNNY   85  75  72 NW10      30.08S HX  93
ANNISTON       SUNNY     86  73  65 W9        30.08F HX  93
BIRMINGHAM     MOSUNNY   86  73  65 W6        30.10F HX  93
CHATTANOOGA    PTSUNNY   87  73  62 W6        30.05R HX  94
CORINTH        FAIR      88  73  62 W10       30.03F HX  96
DALTON         MOSUNNY   82  75  78 CALM      30.05S
GADSDEN        MOSUNNY   90  73  58 W6        30.06F HX  98
GOLDEN TRNGL   SUNNY     90  72  55 W6        30.07S HX  96
HALEYVILLE     FAIR      87  76  69 W7        30.11R HX  97
JACKSON TN     SUNNY     88  76  67 W12       30.02R HX  99
LEWISBURG      FAIR      90  76  63 SW5       30.02S HX 101
MEMPHIS        MOSUNNY   89  73  59 SW7       30.04R HX  97
MURFREESBORO   FAIR      89  76  65 VRB3      30.00S HX 100
NASHVILLE      MOSUNNY   91  76  61 SW5       30.00S HX 103
OXFORD MS      FAIR      86  70  58 W8        30.08S HX  90
ROME           PTSUNNY   87  75  67 SW6       30.04S HX  96
SAVANNAH       SUNNY     88  77  70 W7        30.04S HX 100
TUPELO         SUNNY     90  72  55 W10       30.05S HX  97
TUSCALOOSA     SUNNY     88  73  61 VRB7      30.07F HX  95
$$

...GULF COAST WEATHER...

CITY           SKY/WX    TMP DP  RH WIND       PRES   REMARKS
GULFPORT       MOSUNNY   89  74  60 VRB5      30.09S HX  98
PASCAGOULA     MOSUNNY   89  73  59 VRB3      30.10R HX  97
MOBILE         PTSUNNY   86  75  69 W5        30.12S HX  95
GULF SHORES    MOSUNNY   89  75  63 W7        30.10S HX  99
PENSACOLA      PTSUNNY   89  76  65 CALM      30.09S HX 100
DESTIN         SUNNY     88  77  69 SW7       30.10S HX 100
PANAMA CITY    MOSUNNY   87  78  72 W12       30.11S HX 100
APPALACHICOLA  PTSUNNY   87  77  72 W7        30.10S HX  99
$$




USA.gov is the U.S. government's official web portal to all federal, state and local government web resources and services.